| time (UTC) | temp C | wind direction | speed KPH | gust KPH | rain 1hr cm | rain 24hr cm | rain mn cm | humidity % | barometer mb |
| 20260503050050 | 0 | 0 | 0.0 | 0.0 | 0.00 | 0.00 | 0.00 | 79 | 1011.8 |
| 20260503044612 | 1 | 0 | 0.0 | 0.0 | 0.00 | 0.00 | 0.00 | 78 | 1011.9 |
| 20260503043050 | 1 | 0 | 0.0 | 0.0 | 0.00 | 0.00 | 0.00 | 76 | 1012.3 |
| 20260503041550 | 1 | 0 | 0.0 | 0.0 | 0.00 | 0.00 | 0.00 | 76 | 1012.3 |
| 20260503040048 | 1 | 0 | 0.0 | 0.0 | 0.00 | 0.00 | 0.00 | 74 | 1012.1 |
| 20260503034537 | 2 | 0 | 0.0 | 0.0 | 0.00 | 0.00 | 0.00 | 73 | 1012.0 |
| 20260503033043 | 2 | 0 | 0.0 | 0.0 | 0.00 | 0.00 | 0.00 | 73 | 1012.2 |
| 20260503031544 | 2 | 0 | 0.0 | 0.0 | 0.00 | 0.00 | 0.00 | 72 | 1012.4 |
| 20260503024539 | 2 | 0 | 0.0 | 0.0 | 0.00 | 0.08 | 0.00 | 71 | 1012.3 |
| 20260503023042 | 2 | 0 | 0.0 | 0.0 | 0.00 | 0.08 | 0.00 | 69 | 1012.4 |
| 20260503021539 | 3 | 0 | 0.0 | 0.0 | 0.00 | 0.08 | 0.00 | 70 | 1012.4 |
| 20260503020037 | 3 | 0 | 0.0 | 0.0 | 0.00 | 0.08 | 0.00 | 67 | 1012.4 |
| 20260503014550 | 3 | 0 | 0.0 | 0.0 | 0.00 | 0.13 | 0.00 | 66 | 1012.4 |
| 20260503013038 | 3 | 0 | 0.0 | 0.0 | 0.00 | 0.13 | 0.00 | 66 | 1012.4 |
| 20260503011537 | 3 | 0 | 0.0 | 0.0 | 0.00 | 0.13 | 0.00 | 65 | 1012.2 |
| 20260503010038 | 3 | 0 | 0.0 | 0.0 | 0.00 | 0.13 | 0.00 | 63 | 1012.0 |
| 20260503004546 | 3 | 0 | 0.0 | 0.0 | 0.00 | 0.23 | 0.00 | 64 | 1011.9 |
| 20260503003052 | 3 | 0 | 0.0 | 0.0 | 0.00 | 0.23 | 0.00 | 62 | 1011.9 |
| 20260503001544 | 4 | 0 | 0.0 | 0.0 | 0.00 | 0.23 | 0.00 | 63 | 1011.8 |
| 20260503000045 | 4 | 0 | 0.0 | 0.0 | 0.00 | 0.23 | 0.00 | 63 | 1011.8 |
| 20260502234552 | 5 | 0 | 0.0 | 0.0 | 0.00 | 0.33 | 0.00 | 62 | 1011.7 |
| 20260502233042 | 5 | 0 | 0.0 | 0.0 | 0.00 | 0.33 | 0.00 | 59 | 1011.7 |
| 20260502231542 | 5 | 0 | 0.0 | 0.0 | 0.00 | 0.33 | 0.00 | 58 | 1011.5 |
| 20260502230043 | 5 | 0 | 0.0 | 0.0 | 0.00 | 0.33 | 0.00 | 59 | 1011.4 |
| 20260502224546 | 5 | 0 | 0.0 | 0.0 | 0.00 | 0.33 | 0.00 | 58 | 1011.4 |
| 20260502223059 | 5 | 0 | 0.0 | 0.0 | 0.00 | 0.33 | 0.00 | 57 | 1011.5 |
| 20260502221546 | 6 | 0 | 0.0 | 0.0 | 0.00 | 0.33 | 0.00 | 57 | 1011.4 |
| 20260502220042 | 6 | 0 | 0.0 | 0.0 | 0.00 | 0.33 | 0.00 | 58 | 1011.3 |
| 20260502214600 | 6 | 0 | 0.0 | 0.0 | 0.00 | 0.33 | 0.00 | 55 | 1011.2 |
| 20260502213103 | 6 | 0 | 0.0 | 0.0 | 0.00 | 0.33 | 0.00 | 55 | 1011.2 |
| 20260502211547 | 7 | 0 | 0.0 | 0.0 | 0.00 | 0.33 | 0.00 | 50 | 1011.0 |
| 20260502210039 | 7 | 0 | 0.0 | 0.0 | 0.00 | 0.33 | 0.00 | 50 | 1011.0 |
| 20260502204540 | 7 | 0 | 0.0 | 0.0 | 0.00 | 0.33 | 0.00 | 49 | 1011.2 |
| 20260502203103 | 7 | 0 | 0.0 | 0.0 | 0.00 | 0.33 | 0.00 | 48 | 1011.2 |
| 20260502201545 | 7 | 0 | 0.0 | 0.0 | 0.00 | 0.33 | 0.00 | 48 | 1011.2 |
| 20260502200051 | 7 | 0 | 0.0 | 0.0 | 0.00 | 0.33 | 0.00 | 47 | 1011.4 |
| 20260502194542 | 7 | 0 | 0.0 | 0.0 | 0.00 | 0.33 | 0.00 | 48 | 1011.7 |
| 20260502193037 | 7 | 0 | 0.0 | 0.0 | 0.00 | 0.33 | 0.00 | 48 | 1011.8 |
| 20260502191542 | 7 | 0 | 0.0 | 0.0 | 0.00 | 0.33 | 0.00 | 50 | 1012.0 |
| 20260502190044 | 7 | 0 | 0.0 | 0.0 | 0.00 | 0.33 | 0.00 | 50 | 1012.0 |
| 20260502184544 | 7 | 0 | 0.0 | 0.0 | 0.00 | 0.33 | 0.00 | 49 | 1012.2 |
| 20260502183041 | 7 | 0 | 0.0 | 0.0 | 0.00 | 0.33 | 0.00 | 50 | 1012.2 |
| 20260502181538 | 7 | 0 | 0.0 | 0.0 | 0.00 | 0.33 | 0.00 | 49 | 1012.0 |
| 20260502163059 | 8 | 0 | 0.0 | 0.0 | 0.00 | 0.33 | 0.00 | 47 | 1012.2 |
| 20260502161558 | 7 | 0 | 0.0 | 0.0 | 0.00 | 0.33 | 0.00 | 49 | 1012.0 |
| 20260502151545 | 6 | 0 | 0.0 | 0.0 | 0.00 | 0.33 | 0.00 | 54 | 1012.4 |
| 20260502123108 | 3 | 0 | 0.0 | 0.0 | 0.00 | 0.33 | 0.00 | 97 | 1012.5 |
| 20260502121543 | 2 | 0 | 0.0 | 0.0 | 0.00 | 0.33 | 0.00 | 96 | 1012.3 |
| 20260502114537 | 2 | 0 | 0.0 | 0.0 | 0.00 | 0.33 | 0.00 | 97 | 1012.3 |
| 20260502113044 | 2 | 0 | 0.0 | 0.0 | 0.00 | 0.33 | 0.00 | 97 | 1012.3 |
| 20260502111547 | 1 | 0 | 0.0 | 0.0 | 0.00 | 0.33 | 0.00 | 96 | 1012.2 |
| 20260502110043 | 2 | 0 | 0.0 | 0.0 | 0.00 | 0.33 | 0.00 | 96 | 1011.8 |
| 20260502104541 | 2 | 0 | 0.0 | 0.0 | 0.00 | 0.33 | 0.00 | 97 | 1011.8 |
| 20260502103042 | 2 | 0 | 0.0 | 0.0 | 0.00 | 0.33 | 0.00 | 97 | 1011.9 |
| 20260502101540 | 2 | 0 | 0.0 | 0.0 | 0.00 | 0.33 | 0.00 | 97 | 1012.1 |
| 20260502070055 | 3 | 0 | 0.0 | 0.0 | 0.00 | 0.33 | 0.00 | 96 | 1011.2 |
| 20260502064546 | 3 | 0 | 0.0 | 0.0 | 0.00 | 0.33 | 0.00 | 96 | 1011.1 |
| 20260502063038 | 3 | 0 | 0.0 | 0.0 | 0.00 | 0.33 | 0.00 | 95 | 1010.9 |
| 20260502061541 | 3 | 0 | 0.0 | 0.0 | 0.00 | 0.33 | 0.00 | 96 | 1011.0 |
| 20260502060050 | 3 | 0 | 0.0 | 0.0 | 0.00 | 0.33 | 0.00 | 96 | 1011.0 |
| 20260502054542 | 3 | 0 | 0.0 | 0.0 | 0.00 | 0.33 | 0.00 | 96 | 1010.8 |
| 20260502053042 | 3 | 0 | 0.0 | 0.0 | 0.00 | 0.33 | 0.00 | 96 | 1011.2 |
| 20260502051542 | 3 | 0 | 0.0 | 0.0 | 0.00 | 0.33 | 0.00 | 96 | 1010.8 |